Prague, Czech Republic

6:10 PM CEST on August 20, 2017 (GMT +0200)
Ruzyne

Weather History for LKPR - August, 2012

Change the Weather History Date:

Sunday, August 5, 2012

  Actual Average Record
Temperature  
Mean Temperature 72 °F -  
Max Temperature 86 °F 72 °F 86 °F (2003)
Min Temperature 59 °F 52 °F 46 °F (1996)
Cooling Degree Days 8    
Growing Degree Days 22 (Base 50)    
Moisture  
Dew Point 59 °F    
Average Humidity 63    
Maximum Humidity 88    
Minimum Humidity 33    
Precipitation  
Precipitation 0.01 in 0.08 in - ()
Sea Level Pressure  
Sea Level Pressure 29.88 in    
Wind  
Wind Speed 4 mph ()    
Max Wind Speed 9 mph    
Max Gust Speed -    
Visibility 7.3 miles    
Events Rain , Thunderstorm    
Averages and records for this station are not official NWS values.
T = Trace of Precipitation, MM = Missing Value Source: Averaged Metar Reports

Daily Weather History Graph

Daily Weather History Graph

Search for Another Location

Airport or City:

Trip Planner

Search our weather history database for the weather conditions in past years. The results will help you decide how hot, cold, wet, or windy it might be!

Date:

Astronomy

Aug. 05, 2012 Rise Set
Actual Time 5:37 AM CEST 8:38 PM CEST
Civil Twilight 4:59 AM CEST 9:16 PM CEST
Nautical Twilight 4:10 AM CEST 10:05 PM CEST
Astronomical Twilight 3:08 AM CEST 11:06 PM CEST
Moon 9:36 PM CEST (8/5) 9:38 AM CEST (8/5)
Length of Visible Light 16h 16m
Length of Day
15h 00m
Waning Gibbous, 88% of the Moon is Illuminated
Aug 5
Waning Gibbous
Aug 9
Last Quarter
Aug 17
New
Aug 24
First Quarter
Aug 31
Full

Hourly Weather History & Observations

Time (CEST) Temp. Heat Index Dew Point Humidity Pressure Visibility Wind Dir Wind Speed Gust Speed Precip Events Conditions
12:00 AM 66.2 °F - 55.4 °F 68% 29.95 in - Variable 1.2 mph - N/A   Clear
12:30 AM 66.2 °F - 55.4 °F 68% 29.95 in - Calm Calm - N/A   Clear
1:00 AM 66.2 °F - 55.4 °F 68% 29.95 in - SE 4.6 mph - N/A   Clear
1:30 AM 66.2 °F - 57.2 °F 73% 29.95 in - SE 4.6 mph - N/A   Clear
2:00 AM 64 °F - 58 °F 73% 29.92 in 31 mi South 6.7 mph - -   Scattered Clouds
2:00 AM 64.4 °F - 57.2 °F 77% 29.95 in - SSE 5.8 mph - N/A   Clear
2:30 AM 62.6 °F - 57.2 °F 82% 29.92 in - SSE 4.6 mph - N/A   Clear
3:00 AM 64.4 °F - 59.0 °F 83% 29.92 in - South 3.5 mph - N/A   Clear
3:30 AM 64.4 °F - 59.0 °F 83% 29.92 in - South 3.5 mph - N/A   Clear
4:00 AM 60.8 °F - 57.2 °F 88% 29.92 in - NNW 2.3 mph - N/A   Clear
4:30 AM 60.8 °F - 55.4 °F 82% 29.92 in - Variable 1.2 mph - N/A   Clear
5:00 AM 59.0 °F - 55.4 °F 88% 29.92 in - South 2.3 mph - N/A   Clear
5:30 AM 62.6 °F - 57.2 °F 82% 29.92 in - West 2.3 mph - N/A   Clear
6:00 AM 60.8 °F - 57.2 °F 88% 29.92 in - West 2.3 mph - N/A   Clear
6:30 AM 60.8 °F - 57.2 °F 88% 29.92 in - South 4.6 mph - N/A   Clear
7:00 AM 62.6 °F - 59.0 °F 88% 29.92 in - SSW 3.5 mph - N/A   Clear
7:30 AM 64.4 °F - 59.0 °F 83% 29.92 in - SSW 3.5 mph - N/A   Clear
8:00 AM 65 °F - 60 °F 79% 29.89 in 16 mi South 2.2 mph - -   Mostly Cloudy
8:00 AM 64.4 °F - 60.8 °F 88% 29.92 in - Variable 2.3 mph - N/A   Clear
8:30 AM 68.0 °F - 60.8 °F 78% 29.92 in - Variable 2.3 mph - N/A   Clear
9:00 AM 69.8 °F - 60.8 °F 73% 29.92 in - SW 4.6 mph - N/A   Clear
9:30 AM 69.8 °F - 60.8 °F 73% 29.92 in - Variable 2.3 mph - N/A   Clear
10:00 AM 73.4 °F - 60.8 °F 65% 29.92 in - South 4.6 mph - N/A   Clear
10:30 AM 73.4 °F - 60.8 °F 65% 29.92 in - South 4.6 mph - N/A   Clear
11:00 AM 73.4 °F - 60.8 °F 65% 29.92 in - SSE 4.6 mph - N/A   Clear
11:30 AM 75.2 °F - 60.8 °F 61% 29.92 in 6.2 mi Variable 2.3 mph - N/A   Partly Cloudy
12:00 PM 78.8 °F - 59.0 °F 51% 29.89 in 6.2 mi South 5.8 mph - N/A   Partly Cloudy
12:30 PM 80.6 °F 81.1 °F 59.0 °F 48% 29.89 in 6.2 mi South 6.9 mph - N/A   Partly Cloudy
1:00 PM 80.6 °F 81.1 °F 59.0 °F 48% 29.89 in - South 8.1 mph - N/A   Clear
1:30 PM 82.4 °F 82.5 °F 59.0 °F 45% 29.89 in - South 9.2 mph - N/A   Clear
2:00 PM 83 °F - 59 °F 33% 29.82 in 44 mi South 4.5 mph - -   Scattered Clouds
2:00 PM 82.4 °F 82.5 °F 59.0 °F 45% 29.89 in - South 9.2 mph - N/A   Clear
2:30 PM 82.4 °F 82.5 °F 59.0 °F 45% 29.89 in - South 8.1 mph - N/A   Clear
3:00 PM 82.4 °F 82.5 °F 59.0 °F 45% 29.86 in - South 6.9 mph - N/A   Clear
3:30 PM 84.2 °F 83.8 °F 59.0 °F 42% 29.86 in - SSW 5.8 mph - N/A   Clear
4:00 PM 82.4 °F 82.0 °F 57.2 °F 42% 29.86 in - South 6.9 mph - N/A   Clear
4:30 PM 82.4 °F 82.5 °F 59.0 °F 45% 29.86 in - South 8.1 mph - N/A   Clear
5:00 PM 82.4 °F 82.5 °F 59.0 °F 45% 29.86 in - South 8.1 mph - N/A   Clear
5:30 PM 84.2 °F 83.0 °F 55.4 °F 37% 29.86 in - Variable 2.3 mph - N/A   Clear
6:00 PM 84.2 °F 83.0 °F 55.4 °F 37% 29.83 in - WSW 6.9 mph - N/A   Clear
6:30 PM 84.2 °F 83.0 °F 55.4 °F 37% 29.83 in - SSW 6.9 mph - N/A   Clear
7:00 PM 82.4 °F 82.0 °F 57.2 °F 42% 29.83 in - WSW 6.9 mph - N/A   Clear
7:30 PM 80.6 °F 81.1 °F 59.0 °F 48% 29.83 in - WSW 5.8 mph - N/A   Clear
8:00 PM 81 °F - 57 °F 34% 29.78 in 37 mi West 4.5 mph - -   Scattered Clouds
8:00 PM 80.6 °F 80.8 °F 57.2 °F 45% 29.83 in - West 5.8 mph - N/A   Clear
8:30 PM 75.2 °F - 59.0 °F 57% 29.83 in - NW 5.8 mph - N/A   Clear
9:00 PM 73.4 °F - 60.8 °F 65% 29.83 in - NNW 4.6 mph - N/A   Clear
9:30 PM 73.4 °F - 60.8 °F 65% 29.83 in - NNW 3.5 mph - N/A   Clear
10:00 PM 71.6 °F - 60.8 °F 69% 29.83 in - West 4.6 mph - N/A   Clear
10:30 PM 71.6 °F - 60.8 °F 69% 29.83 in 6.2 mi West 3.5 mph - N/A   Partly Cloudy
10:39 PM 71.6 °F - 60.8 °F 69% 29.83 in 6.2 mi Variable 1.2 mph - N/A Thunderstorm Partly Cloudy
11:00 PM 73.4 °F - 60.8 °F 65% 29.83 in 6.2 mi NW 3.5 mph - N/A Thunderstorm Partly Cloudy
11:05 PM 71.6 °F - 60.8 °F 69% 29.83 in 6.2 mi Variable 2.3 mph - N/A Rain Light Rain Showers
11:30 PM 73.4 °F - 60.8 °F 65% 29.83 in 6.2 mi Calm Calm - N/A   Partly Cloudy